Tracking 29493 objects as of 8-Sep-2024
HD Live streaming from Space Station
objects crossing your sky now

GLOBALSTAR M052

Track GLOBALSTAR M052 now!
10-day predictions
GLOBALSTAR M052 is classified as:


NORAD ID: 25773
Int'l Code: 1999-031D
Perigee: 2,090.0 km
Apogee: 2,094.5 km
Inclination: 52.0 °
Period: 129.1 minutes
Semi major axis: 8463 km
RCS: 2.3894 m2 (large)
Launch date: June 10, 1999
Source: Globalstar (GLOB)
Launch site: AIR FORCE EASTERN TEST RANGE (AFETR)
Your satellite tracking list
Your tracking list is empty




NASA's NSSDC Master Catalog

Two Line Element Set (TLE):
1 25773U 99031D   24252.31768789  .00000006  00000-0  24190-2 0  9994
2 25773  51.9835 225.4787 0002669  57.7010  91.1833 11.15053581447061
Source of the keplerian elements: AFSPC